This demonstration page uses our WeatherBlox Daily Observations layout. Learn more.

Left ArrowRight Arrow

39.92423, -83.80882

Hourly Observations for March 20, 2022

Temp ( °F °C ) Dew Point ( °F °C ) Humidity (%) Winds ( mph kmh ) Pressure ( in mb ) Visibility ( mi km ) Precip ( " mm )
12:23 am 00:23 Cloudy with Light Rain 39 4 N/A N/A W 13 20 30.02 1016 10 16 0.00 0.00
12:56 am 00:56 Cloudy with Light Rain 39 3.9 39 3.9 100 100 W 20 31 30.01 1016 10 16 0.00 0.00
12:59 am 00:59 Cloudy with Light Rain 39 4 39 4 100 100 W 17 28 30.03 1017 10 16 0.00 0.00
1:56 am 01:56 Cloudy with Light Rain 37 3 N/A N/A W 13 20 30.03 1017 10 16 0.00 0.00
2:56 am 02:56 Cloudy with Light Rain 37 3 N/A N/A W 10 17 30.04 1017 10 16 0.00 0.00
3:56 am 03:56 Cloudy with Light Rain 37 3 N/A N/A W 13 20 30.05 1018 10 16 0.00 0.00
4:42 am 04:42 Cloudy with Light Rain 37 3 N/A N/A W 12 19 30.08 1019 10 16 0.00 0.00
4:56 am 04:56 Cloudy with Light Rain 39 4 N/A N/A W 13 20 30.06 1018 10 16 0.00 0.00
5:16 am 05:16 Cloudy with Light Rain 39 4 N/A N/A W 12 19 30.08 1018 10 16 0.00 0.00
5:45 am 05:45 Cloudy with Light Rain 39 4 N/A N/A W 9 15 30.10 1019 10 16 0.00 0.00
5:56 am 05:56 Cloudy with Light Rain 39 4 N/A N/A W 8 13 30.08 1019 10 16 0.00 0.00
6:56 am 06:56 Cloudy 39 4 N/A N/A WSW 10 17 30.09 1019 10 16 0.00 0.00
7:56 am 07:56 Mostly Cloudy 39 4 N/A N/A WSW 9 15 30.11 1020 9 14 0.00 0.00
8:31 am 08:31 Mostly Sunny 39 4 N/A N/A WSW 9 15 30.14 1021 7 11 0.00 0.00
8:49 am 08:49 Mostly Cloudy 41 5 N/A N/A W 10 17 30.14 1021 7 11 0.00 0.00
8:56 am 08:56 Mostly Cloudy 41 5 N/A N/A WSW 12 19 30.14 1021 7 11 0.00 0.00
9:43 am 09:43 Mostly Cloudy 45 7 45 7 100 100 W 10 17 30.14 1021 10 16 0.00 0.00
9:56 am 09:56 Mostly Cloudy 44 6.7 44 6.7 100 100 W 12 19 30.15 1021 10 16 0.00 0.00
10:10 am 10:10 Partly Cloudy 45 7 43 6 93 93 WNW 10 17 30.15 1021 10 16 0.00 0.00
10:54 am 10:54 Mostly Cloudy 46 8 43 6 87 87 WNW 10 17 30.16 1021 10 16 0.00 0.00
10:56 am 10:56 Mostly Cloudy 47 8.3 43 6.1 86 86 W 13 20 30.16 1022 10 16 0.00 0.00
11:56 am 11:56 Mostly Cloudy 49 9.4 41 5 74 74 WNW 14 22 30.18 1022 10 16 0.00 0.00
12:32 pm 12:32 Mostly Cloudy 48 9 39 4 71 71 WNW 10 17 30.19 1022 10 16 0.00 0.00
12:56 pm 12:56 Mostly Cloudy 49 9.4 38 3.3 66 66 WNW 15 24 30.20 1023 10 16 0.00 0.00
1:56 pm 13:56 Mostly Sunny 52 11.1 38 3.3 59 59 WNW 14 22 30.20 1023 10 16 0.00 0.00
2:56 pm 14:56 Sunny 54 12.2 36 2.2 51 51 NW 13 20 30.19 1022 10 16 0.00 0.00
3:56 pm 15:56 Sunny 55 12.8 36 2.2 49 49 WNW 9 15 30.18 1022 10 16 0.00 0.00
4:56 pm 16:56 Sunny 57 13.9 36 2.2 45 45 W 14 22 30.19 1022 10 16 0.00 0.00
5:56 pm 17:56 Sunny 57 13.9 34 1.1 42 42 WNW 12 19 30.19 1022 10 16 0.00 0.00
6:56 pm 18:56 Sunny 56 13.3 35 1.7 46 46 WNW 7 11 30.19 1022 10 16 0.00 0.00
7:56 pm 19:56 Clear 51 10.6 35 1.7 54 54 WNW 7 11 30.20 1023 10 16 0.00 0.00
8:56 pm 20:56 Clear 50 10 33 0.6 52 52 Calm 30.21 1023 10 16 0.00 0.00
9:56 pm 21:56 Clear 45 7.2 36 2.2 71 71 Calm 30.22 1023 10 16 0.00 0.00
10:56 pm 22:56 Clear 41 5 36 2.2 82 82 S 3 6 30.22 1023 10 16 0.00 0.00
11:56 pm 23:56 Clear 40 4.4 35 1.7 83 83 S 3 6 30.22 1023 10 16 0.00 0.00

Powered by AerisWeather